Location: Lhota
(50.0887°N, 14.0116°E)
Time: 09:48:41
(UTC+00:00)

Cosmos 2278 - Pass Details

Date: 19 May 2025
Orbit: 839 x 850 km, 71.1° (Epoch: 23 June)

Event Time Altitude Azimuth Distance (km) Brightness Sun altitude
Rises 21:23:18 0° 332° (NNW) 3,406 8.7 -16.7°
Reaches altitude 10° 21:25:51 10° 339° (NNW) 2,467 7.5 -16.9°
Maximum altitude 21:31:19 48° 53° (NE) 1,091 4.4 -17.2°
Enters shadow 21:34:55 21° 119° (ESE) 1,824 5.0 -17.4°
